Location: Newark
(39.0622°N, 106.5590°E)
Time: 20:50:40
(UTC+00:00)

Vanguard 2 Rocket - Pass Details

Date: 30 January 2020
Orbit: 554 x 3327 km, 32.9° (Epoch: 22 February)

Event Time Altitude Azimuth Distance (km) Brightness Sun altitude
Rises 19:24:06 0° 224° (SW) 3,032 - -53.4°
Reaches altitude 10° 19:27:12 10° 205° (SSW) 1,923 - -52.8°
Maximum altitude 19:30:03 18° 161° (SSE) 1,395 - -52.3°
Drops below altitude 10° 19:32:48 10° 116° (ESE) 1,830 - -51.8°
Sets 19:35:38 0° 96° (E) 2,821 - -51.3°
